Weather History for Madison, WI

Change the Weather History Date:

Friday, March 29, 2013

  Actual Average Record
Temperature  
Mean Temperature 36 °F 39 °F  
Max Temperature 49 °F 49 °F 82 °F (1986)
Min Temperature 23 °F 29 °F 1 °F (1887)
Degree Days  
Heating Degree Days 29 26  
Month to date heating degree days 1134 912  
Since 1 July heating degree days 6292 6398  
Cooling Degree Days 0 0  
Month to date cooling degree days 0 0  
Year to date cooling degree days 0 0  
Moisture  
Dew Point 22 °F    
Average Humidity 60    
Maximum Humidity 88    
Minimum Humidity 31    
Precipitation  
Precipitation 0.00 in 0.09 in 1.07 in (1960)
Month to date precipitation 2.40 2.01  
Year to date precipitation 7.68 4.69  
Snow  
Snow 0.00 in 0.20 in 10.90 in (1972)
Month to date snowfall 15.2 6.7  
Since 1 July snowfall 70.3 47.8  
Snow Depth 4.00 in    
Sea Level Pressure  
Sea Level Pressure 30.31 in    
Wind  
Wind Speed 2 mph (ESE)    
Max Wind Speed 9 mph    
Max Gust Speed 21 mph    
Visibility 10 miles    
Events      
T = Trace of Precipitation, MM = Missing Value Source: NWS Daily Summary

Daily Weather History Graph

Daily Weather History Graph

Search for Another Location

Airport:

Trip Planner

Search our weather history database for the weather conditions in past years. The results will help you decide how hot, cold, wet, or windy it might be!

Date:

Astronomy

Mar. 29, 2013 Rise Set
Actual Time 6:44 AM CDT 7:20 PM CDT
Civil Twilight 6:15 AM CDT 7:49 PM CDT
Nautical Twilight 5:41 AM CDT 8:23 PM CDT
Astronomical Twilight 5:06 AM CDT 8:58 PM CDT
Moon 10:26 PM CDT (3/29) 7:48 AM CDT (3/29)
Length of Visible Light 13h 33m
Length of Day
12h 36m
Waning Gibbous, 93% of the Moon is Illuminated
Mar 29
Waning Gibbous
Apr 2
Last Quarter
Apr 10
New
Apr 18
First Quarter
Apr 25
Full

Hourly Weather History & Observations

Time (CDT) Temp. Windchill Dew Point Humidity Pressure Visibility Wind Dir Wind Speed Gust Speed Precip Events Conditions
12:53 AM 28.0 °F - 21.0 °F 75% 30.33 in 10.0 mi Calm Calm - N/A   Clear
1:53 AM 27.0 °F - 21.9 °F 81% 30.33 in 10.0 mi Calm Calm - N/A   Clear
2:53 AM 26.1 °F - 21.0 °F 81% 30.32 in 10.0 mi Calm Calm - N/A   Clear
3:53 AM 26.1 °F - 21.0 °F 81% 30.32 in 10.0 mi Calm Calm - N/A   Clear
4:53 AM 26.1 °F - 21.9 °F 84% 30.31 in 10.0 mi Calm Calm - N/A   Clear
5:53 AM 23.0 °F - 19.9 °F 88% 30.32 in 10.0 mi Calm Calm - N/A   Clear
6:53 AM 23.0 °F - 19.9 °F 88% 30.33 in 10.0 mi Calm Calm - N/A   Clear
7:53 AM 28.9 °F - 24.1 °F 82% 30.34 in 10.0 mi Calm Calm - N/A   Clear
8:53 AM 33.1 °F - 26.1 °F 75% 30.35 in 10.0 mi Calm Calm - N/A   Clear
9:53 AM 41.0 °F 39.0 °F 26.1 °F 55% 30.35 in 10.0 mi NNE 3.5 mph - N/A   Clear
10:53 AM 43.0 °F - 21.9 °F 43% 30.36 in 10.0 mi Calm Calm - N/A   Clear
11:53 AM 46.0 °F 43.1 °F 19.9 °F 35% 30.34 in 10.0 mi NW 5.8 mph - N/A   Clear
12:53 PM 46.0 °F - 19.0 °F 34% 30.32 in 10.0 mi Calm Calm - N/A   Clear
1:53 PM 46.9 °F - 24.1 °F 41% 30.31 in 10.0 mi Calm Calm - N/A   Clear
2:53 PM 46.9 °F - 19.9 °F 34% 30.29 in 10.0 mi Calm Calm - N/A   Clear
3:53 PM 48.0 °F - 21.9 °F 36% 30.28 in 10.0 mi Calm Calm - N/A   Clear
4:53 PM 48.9 °F - 19.9 °F 32% 30.27 in 10.0 mi ENE 3.5 mph - N/A   Clear
5:53 PM 46.0 °F 43.1 °F 23.0 °F 40% 30.27 in 10.0 mi East 5.8 mph - N/A   Clear
6:53 PM 43.0 °F 39.5 °F 24.1 °F 47% 30.27 in 10.0 mi ESE 5.8 mph - N/A   Clear
7:53 PM 39.0 °F - 24.1 °F 55% 30.27 in 10.0 mi Calm Calm - N/A   Clear
8:53 PM 39.0 °F 35.7 °F 23.0 °F 53% 30.27 in 10.0 mi SE 4.6 mph - N/A   Clear
9:53 PM 39.9 °F 37.8 °F 21.0 °F 47% 30.26 in 10.0 mi SSE 3.5 mph - N/A   Clear
10:53 PM 33.1 °F - 23.0 °F 66% 30.26 in 10.0 mi Calm Calm - N/A   Clear
11:53 PM 37.9 °F 34.4 °F 21.9 °F 53% 30.24 in 10.0 mi South 4.6 mph - N/A   Mostly Cloudy